VA2EYZ-13 Weather Reports


time (UTC)temp
F
wind
direction
speed
knots
gust
knots
rain 1hr
in
rain 24hr
in
rain mn
in
humidity
%
barometer
mb
20260510120853 54 0.0 0.0 0.00 0.00 0.00 68 1008.0
20260510115853 53 0.0 0.0 0.00 0.00 0.00 71 1008.0
20260510111513 53 0.0 0.0 0.00 0.00 0.00 86 1008.5
20260510110353 53 0.0 0.0 0.00 0.00 0.00 86 1008.0
20260510104844 51 0.0 0.0 0.00 0.00 0.00 88 1008.0
20260510102003 51 0.0 0.0 0.00 0.00 0.00 88 1007.0
20260510101458 51 0.0 0.0 0.00 0.00 0.00 88 1007.5
20260510100353 51 0.0 0.0 0.00 0.00 0.00 88 1007.0
20260510093822 51 0.0 0.0 0.00 0.00 0.00 89 1007.0
20260510091628 51 0.0 0.0 0.00 0.00 0.00 89 1006.8
20260510084419 51 0.0 0.0 0.00 0.00 0.00 91 1006.0
20260510080353 51 0.0 0.0 0.00 0.00 0.00 91 1006.0
20260510074820 51 0.0 0.0 0.00 0.00 0.00 91 1006.0
20260510073319 51 0.0 0.0 0.00 0.00 0.00 91 1006.2
20260510070227 51 0.0 0.0 0.00 0.00 0.00 91 1006.0
20260510064854 51 0.0 0.0 0.00 0.00 0.00 91 1005.8
20260510063407 51 0.0 0.0 0.00 0.00 0.00 92 1005.8
20260510060353 51 0.0 0.0 0.00 0.00 0.00 92 1005.0
20260510054229 52 0.0 0.0 0.00 0.00 0.00 82 1006.1
20260510051353 52 0.0 0.0 0.00 0.00 0.00 82 1005.0
20260510050432 52 0.0 0.0 0.00 0.00 0.00 81 1005.0
20260510044538 51 0.0 0.0 0.00 0.00 0.00 79 1005.9
20260510042806 51 0.0 0.0 0.00 0.00 0.00 79 1006.0
20260510041427 51 0.0 0.0 0.00 0.00 0.00 79 1005.0
20260510040154 51 0.0 0.0 0.00 0.00 0.00 79 1005.7
20260510035039 52 0.0 0.0 0.00 0.00 0.00 80 1005.7
20260510022528 52 0.0 0.0 0.00 0.00 0.00 81 1006.0
20260510020155 52 0.0 0.0 0.00 0.00 0.00 81 1006.0
20260510014308 53 0.0 0.0 0.00 0.00 0.00 75 1006.0
20260510013724 53 0.0 0.0 0.00 0.00 0.00 75 1007.0
20260510010752 53 0.0 0.0 0.00 0.00 0.00 75 1007.0
20260510002705 54 0.0 0.0 0.00 0.00 0.00 69 1006.0
20260510001303 54 0.0 0.0 0.00 0.00 0.00 69 1006.8
20260510000154 54 0.0 0.0 0.00 0.00 0.00 69 1006.0
20260509232944 57 0.0 0.0 0.00 0.00 0.00 60 1006.0
20260509231311 57 0.0 0.0 0.00 0.00 0.00 60 1006.5
20260509225709 59 0.0 0.0 0.00 0.00 0.00 55 1006.0
20260509221510 59 0.0 0.0 0.00 0.00 0.00 55 1007.0
20260509220155 59 0.0 0.0 0.00 0.00 0.00 55 1006.0
20260509212001 62 0.0 0.0 0.00 0.00 0.00 46 1007.0
20260509210155 62 0.0 0.0 0.00 0.00 0.00 46 1007.0
20260509203851 63 0.0 0.0 0.00 0.00 0.00 37 1007.0
20260509202553 63 0.0 0.0 0.00 0.00 0.00 37 1007.2
20260509200154 63 0.0 0.0 0.00 0.00 0.00 37 1007.0
20260509194211 65 0.0 0.0 0.00 0.00 0.00 24 1007.0
20260509192911 65 0.0 0.0 0.00 0.00 0.00 24 1007.8
20260509184853 65 0.0 0.0 0.00 0.00 0.00 24 1007.0
20260509182909 65 0.0 0.0 0.00 0.00 0.00 24 1008.3
20260509180155 65 0.0 0.0 0.00 0.00 0.00 24 1008.0
20260509174444 63 0.0 0.0 0.00 0.00 0.00 25 1008.0
20260509170153 63 0.0 0.0 0.00 0.00 0.00 25 1009.0
20260509164048 62 0.0 0.0 0.00 0.00 0.00 25 1009.0
20260509162023 62 0.0 0.0 0.00 0.00 0.00 25 1010.0
20260509161208 62 0.0 0.0 0.00 0.00 0.00 25 1009.0
20260509160153 62 0.0 0.0 0.00 0.00 0.00 25 1010.0
20260509153723 59 0.0 0.0 0.00 0.00 0.00 35 1010.0
20260509152524 59 0.0 0.0 0.00 0.00 0.00 35 1010.0
20260509150153 59 0.0 0.0 0.00 0.00 0.00 35 1011.0
20260509144324 56 0.0 0.0 0.00 0.00 0.00 38 1011.0
20260509143216 56 0.0 0.0 0.00 0.00 0.00 38 1011.2
20260509140153 56 0.0 0.0 0.00 0.00 0.00 38 1011.0
20260509133908 53 0.0 0.0 0.00 0.00 0.00 44 1011.0
20260509133404 53 0.0 0.0 0.00 0.00 0.00 44 1011.4
20260509130153 53 0.0 0.0 0.00 0.00 0.00 44 1011.0
20260509125647 48 0.0 0.0 0.00 0.00 0.00 56 1011.0
20260509124055 48 0.0 0.0 0.00 0.00 0.00 56 1011.9
20260509120934 48 0.0 0.0 0.00 0.00 0.00 56 1011.0